Hourly Data Report for December 23, 2002

TORONTO CITY
ONTARIO

43°40'00.000" N
79°24'00.000" W
112.50 m
6158355
71508
XTO

Download Data

Hourly Data (December 2002)
Hourly Data Report for December 23, 2002
TIME
LST
Temp Definition
°C
Dew Point Definition
°C
Rel Hum Definition
%
Precip. Amount Definition
mm

Wind Dir Definition
10's deg

Wind Spd Definition
km/h
Visibility Definition
km
Stn Press Definition
kPa
Hmdx Definition


Wind Chill Definition


Weather Definition


00:00 1.0 -4.5 67   LegendMM LegendMM LegendMM 99.32     LegendNANA
01:00 0.8 -4.3 69   LegendMM LegendMM LegendMM 99.31     LegendNANA
02:00 0.4 -3.6 74   LegendMM LegendMM LegendMM 99.34     LegendNANA
03:00 0.2 -3.4 77   LegendMM LegendMM LegendMM 99.40     LegendNANA
04:00 0.2 -3.6 76   LegendMM LegendMM LegendMM 99.40     LegendNANA
05:00 0.1 -3.7 76   LegendMM LegendMM LegendMM 99.39     LegendNANA
06:00 0.3 -4.1 72   LegendMM LegendMM LegendMM 99.40     LegendNANA
07:00 0.4 -4.1 72   LegendMM LegendMM LegendMM 99.45     LegendNANA
08:00 0.3 -4.1 72   LegendMM LegendMM LegendMM 99.46     LegendNANA
09:00 0.4 -3.6 74   LegendMM LegendMM LegendMM 99.52     LegendNANA
10:00 0.8 -3.6 72   LegendMM LegendMM LegendMM 99.50     LegendNANA
11:00 0.8 -3.2 75   LegendMM LegendMM LegendMM 99.50     LegendNANA
12:00 0.4 -3.1 77   LegendMM LegendMM LegendMM 99.42     LegendNANA
13:00 0.1 -2.5 83   LegendMM LegendMM LegendMM 99.34     LegendNANA
14:00 0.2 -2.4 83   LegendMM LegendMM LegendMM 99.33     LegendNANA
15:00 0.7 -4.0 71   LegendMM LegendMM LegendMM 99.34     LegendNANA
16:00 0.7 -5.0 66   LegendMM LegendMM LegendMM 99.47     LegendNANA
17:00 0.2 -5.3 66   LegendMM LegendMM LegendMM 99.50     LegendNANA
18:00 0.0 -4.9 70   LegendMM LegendMM LegendMM 99.61     LegendNANA
19:00 -0.4 -5.9 66   LegendMM LegendMM LegendMM 99.71     LegendNANA
20:00 -0.6 -6.3 65   LegendMM LegendMM LegendMM 99.76     LegendNANA
21:00 -0.5 -5.6 68   LegendMM LegendMM LegendMM 99.84     LegendNANA
22:00 -1.3 -6.5 68   LegendMM LegendMM LegendMM 99.87     LegendNANA
23:00 -1.7 -7.7 64   LegendMM LegendMM LegendMM 99.98     LegendNANA

Notes on Data Quality.

Legend

  • E = Estimated
  • M = Missing
  • NA = Not Available*
  • [empty] = Indicates an unobserved value
Date modified: